Time,TemperatureF,DewpointF,PressureIn,WindDirection,WindDirectionDegrees,WindSpeedMPH,WindSpeedGustMPH,Humidity,HourlyPrecipIn,Conditions,Clouds,dailyrainin,SolarRadiationWatts/m^2,SoftwareType,DateUTC
2013-03-05 00:21:00,44.0,36.0,-100.00,East,100,12.0,23.0,73,0.00,,,0.00,0.000000,,2013-03-05 10:21:00,
2013-03-05 00:32:00,44.0,36.0,-100.00,East,100,12.0,23.0,73,0.00,,,0.00,0.000000,,2013-03-05 10:32:00,
2013-03-05 00:42:00,44.0,36.0,-100.00,East,100,12.0,23.0,73,0.00,,,0.00,0.000000,,2013-03-05 10:42:00,
2013-03-05 00:51:00,44.0,36.0,-100.00,East,100,12.0,23.0,73,0.00,,,0.00,0.000000,,2013-03-05 10:51:00,
2013-03-05 01:22:00,42.0,40.0,-100.00,ESE,106,13.0,19.0,91,0.00,,,0.00,0.000000,,2013-03-05 11:22:00,
2013-03-05 01:32:00,42.0,40.0,-100.00,ESE,106,13.0,19.0,91,0.00,,,0.00,0.000000,,2013-03-05 11:32:00,
2013-03-05 01:42:00,42.0,40.0,-100.00,ESE,106,13.0,19.0,91,0.00,,,0.00,0.000000,,2013-03-05 11:42:00,
2013-03-05 01:52:00,42.0,40.0,-100.00,ESE,106,13.0,19.0,91,0.00,,,0.00,0.000000,,2013-03-05 11:52:00,
2013-03-05 02:22:00,42.0,38.0,-100.00,East,97,12.0,17.0,87,0.00,,,0.00,0.000000,,2013-03-05 12:22:00,
2013-03-05 02:32:00,42.0,38.0,-100.00,East,97,12.0,17.0,87,0.00,,,0.00,0.000000,,2013-03-05 12:32:00,
2013-03-05 02:42:00,42.0,38.0,-100.00,East,97,12.0,17.0,87,0.00,,,0.00,0.000000,,2013-03-05 12:42:00,
2013-03-05 02:52:00,42.0,38.0,-100.00,East,97,12.0,17.0,87,0.00,,,0.00,0.000000,,2013-03-05 12:52:00,
2013-03-05 03:21:00,43.0,38.0,-100.00,ESE,118,8.0,18.0,83,0.00,,,-99.99,0.000000,,2013-03-05 13:21:00,
2013-03-05 03:32:00,43.0,38.0,-100.00,ESE,118,8.0,18.0,83,0.00,,,-99.99,0.000000,,2013-03-05 13:32:00,
2013-03-05 03:42:00,43.0,38.0,-100.00,ESE,118,8.0,18.0,83,0.00,,,-99.99,0.000000,,2013-03-05 13:42:00,
2013-03-05 03:51:00,43.0,38.0,-100.00,ESE,118,8.0,18.0,83,0.00,,,-99.99,0.000000,,2013-03-05 13:51:00,
2013-03-05 04:21:00,42.0,24.0,-100.00,ESE,111,8.0,12.0,48,0.00,,,0.00,0.000000,,2013-03-05 14:21:00,
2013-03-05 04:31:00,42.0,24.0,-100.00,ESE,111,8.0,12.0,48,0.00,,,0.00,0.000000,,2013-03-05 14:31:00,
2013-03-05 04:42:00,42.0,24.0,-100.00,ESE,111,8.0,12.0,48,0.00,,,0.00,0.000000,,2013-03-05 14:42:00,
2013-03-05 04:52:00,42.0,24.0,-100.00,ESE,111,8.0,12.0,48,0.00,,,0.00,0.000000,,2013-03-05 14:52:00,
2013-03-05 05:21:00,41.0,25.0,-100.00,ESE,111,6.0,12.0,52,0.00,,,0.00,0.000000,,2013-03-05 15:21:00,
2013-03-05 05:32:00,41.0,25.0,-100.00,ESE,111,6.0,12.0,52,0.00,,,0.00,0.000000,,2013-03-05 15:32:00,
2013-03-05 05:42:00,41.0,25.0,-100.00,ESE,111,6.0,12.0,52,0.00,,,0.00,0.000000,,2013-03-05 15:42:00,
2013-03-05 05:51:00,41.0,25.0,-100.00,ESE,111,6.0,12.0,52,0.00,,,0.00,0.000000,,2013-03-05 15:51:00,
2013-03-05 06:21:00,39.0,25.0,-100.00,SE,127,6.0,9.0,57,0.00,,,0.00,0.000000,,2013-03-05 16:21:00,
2013-03-05 06:32:00,39.0,25.0,-100.00,SE,127,6.0,9.0,57,0.00,,,0.00,0.000000,,2013-03-05 16:32:00,
2013-03-05 06:41:00,39.0,25.0,-100.00,SE,127,6.0,9.0,57,0.00,,,0.00,0.000000,,2013-03-05 16:41:00,
2013-03-05 06:51:00,39.0,25.0,-100.00,SE,127,6.0,9.0,57,0.00,,,0.00,0.000000,,2013-03-05 16:51:00,
2013-03-05 07:21:00,40.0,25.0,-100.00,SE,126,6.0,14.0,54,0.00,,,0.00,7.000000,,2013-03-05 17:21:00,
2013-03-05 07:32:00,40.0,25.0,-100.00,SE,126,6.0,14.0,54,0.00,,,0.00,7.000000,,2013-03-05 17:32:00,
2013-03-05 07:41:00,40.0,25.0,-100.00,SE,126,6.0,14.0,54,0.00,,,0.00,7.000000,,2013-03-05 17:41:00,
2013-03-05 07:52:00,40.0,25.0,-100.00,SE,126,6.0,14.0,54,0.00,,,0.00,7.000000,,2013-03-05 17:52:00,
2013-03-05 08:21:00,49.0,27.0,-100.00,ESE,103,8.0,13.0,43,0.00,,,0.00,204.000000,,2013-03-05 18:21:00,
2013-03-05 08:32:00,49.0,27.0,-100.00,ESE,103,8.0,13.0,43,0.00,,,0.00,204.000000,,2013-03-05 18:32:00,
2013-03-05 08:41:00,49.0,27.0,-100.00,ESE,103,8.0,13.0,43,0.00,,,0.00,204.000000,,2013-03-05 18:41:00,
2013-03-05 08:52:00,49.0,27.0,-100.00,ESE,103,8.0,13.0,43,0.00,,,0.00,204.000000,,2013-03-05 18:52:00,
2013-03-05 09:21:00,61.0,22.0,-100.00,East,99,5.0,12.0,22,0.00,,,0.00,485.000000,,2013-03-05 19:21:00,
2013-03-05 09:32:00,61.0,22.0,-100.00,East,99,5.0,12.0,22,0.00,,,0.00,485.000000,,2013-03-05 19:32:00,
2013-03-05 09:41:00,61.0,22.0,-100.00,East,99,5.0,12.0,22,0.00,,,0.00,485.000000,,2013-03-05 19:41:00,
2013-03-05 09:51:00,61.0,22.0,-100.00,East,99,5.0,12.0,22,0.00,,,0.00,485.000000,,2013-03-05 19:51:00,
2013-03-05 10:21:00,60.0,27.0,-100.00,East,96,11.0,16.0,28,0.00,,,0.00,858.000000,,2013-03-05 20:21:00,
2013-03-05 10:32:00,60.0,27.0,-100.00,East,96,11.0,16.0,28,0.00,,,0.00,858.000000,,2013-03-05 20:32:00,
2013-03-05 10:41:00,60.0,27.0,-100.00,East,96,11.0,16.0,28,0.00,,,0.00,858.000000,,2013-03-05 20:41:00,
2013-03-05 10:52:00,60.0,27.0,-100.00,East,96,11.0,16.0,28,0.00,,,0.00,858.000000,,2013-03-05 20:52:00,
2013-03-05 11:21:00,63.0,29.0,-100.00,ESE,104,4.0,18.0,28,0.00,,,0.00,1083.000000,,2013-03-05 21:21:00,
2013-03-05 11:31:00,63.0,29.0,-100.00,ESE,104,4.0,18.0,28,0.00,,,0.00,1083.000000,,2013-03-05 21:31:00,
2013-03-05 11:41:00,63.0,29.0,-100.00,ESE,104,4.0,18.0,28,0.00,,,0.00,1083.000000,,2013-03-05 21:41:00,
2013-03-05 11:52:00,63.0,29.0,-100.00,ESE,104,4.0,18.0,28,0.00,,,0.00,1083.000000,,2013-03-05 21:52:00,
2013-03-05 12:21:00,67.0,22.0,-100.00,ENE,62,5.0,14.0,18,0.00,,,0.00,1230.000000,,2013-03-05 22:21:00,
2013-03-05 12:32:00,67.0,22.0,-100.00,ENE,62,5.0,14.0,18,0.00,,,0.00,1230.000000,,2013-03-05 22:32:00,
2013-03-05 12:41:00,67.0,22.0,-100.00,ENE,62,5.0,14.0,18,0.00,,,0.00,1230.000000,,2013-03-05 22:41:00,
2013-03-05 12:52:00,67.0,22.0,-100.00,ENE,62,5.0,14.0,18,0.00,,,0.00,1230.000000,,2013-03-05 22:52:00,
2013-03-05 13:21:00,66.0,40.0,-100.00,WNW,282,9.0,20.0,39,0.00,,,0.00,1269.000000,,2013-03-05 23:21:00,
2013-03-05 13:32:00,66.0,40.0,-100.00,WNW,282,9.0,20.0,39,0.00,,,0.00,1269.000000,,2013-03-05 23:32:00,
2013-03-05 13:41:00,66.0,40.0,-100.00,WNW,282,9.0,20.0,39,0.00,,,0.00,1269.000000,,2013-03-05 23:41:00,
2013-03-05 13:52:00,66.0,40.0,-100.00,WNW,282,9.0,20.0,39,0.00,,,0.00,1269.000000,,2013-03-05 23:52:00,
2013-03-05 14:21:00,65.0,47.0,-100.00,West,280,12.0,22.0,52,0.00,,,0.00,1226.000000,,2013-03-06 00:21:00,
2013-03-05 14:32:00,65.0,47.0,-100.00,West,280,12.0,22.0,52,0.00,,,0.00,1226.000000,,2013-03-06 00:32:00,
2013-03-05 14:41:00,65.0,47.0,-100.00,West,280,12.0,22.0,52,0.00,,,0.00,1226.000000,,2013-03-06 00:41:00,
2013-03-05 14:51:00,65.0,47.0,-100.00,West,280,12.0,22.0,52,0.00,,,0.00,1226.000000,,2013-03-06 00:51:00,
2013-03-05 15:21:00,63.0,49.0,-100.00,WNW,299,13.0,22.0,60,0.00,,,0.00,1105.000000,,2013-03-06 01:21:00,
2013-03-05 15:31:00,63.0,49.0,-100.00,WNW,299,13.0,22.0,60,0.00,,,0.00,1105.000000,,2013-03-06 01:31:00,
2013-03-05 15:41:00,63.0,49.0,-100.00,WNW,299,13.0,22.0,60,0.00,,,0.00,1105.000000,,2013-03-06 01:41:00,
2013-03-05 15:51:00,63.0,49.0,-100.00,WNW,299,13.0,22.0,60,0.00,,,0.00,1105.000000,,2013-03-06 01:51:00,
2013-03-05 16:21:00,59.0,48.0,-100.00,WNW,289,12.0,25.0,68,0.00,,,0.00,791.000000,,2013-03-06 02:21:00,
2013-03-05 16:31:00,59.0,48.0,-100.00,WNW,289,12.0,25.0,68,0.00,,,0.00,791.000000,,2013-03-06 02:31:00,
2013-03-05 16:41:00,59.0,48.0,-100.00,WNW,289,12.0,25.0,68,0.00,,,0.00,791.000000,,2013-03-06 02:41:00,
2013-03-05 16:52:00,59.0,48.0,-100.00,WNW,289,12.0,25.0,68,0.00,,,0.00,791.000000,,2013-03-06 02:52:00,
2013-03-05 17:21:00,58.0,50.0,-100.00,WNW,298,9.0,17.0,74,0.00,,,0.00,441.000000,,2013-03-06 03:21:00,
2013-03-05 17:31:00,58.0,50.0,-100.00,WNW,298,9.0,17.0,74,0.00,,,0.00,441.000000,,2013-03-06 03:31:00,
2013-03-05 17:41:00,58.0,50.0,-100.00,WNW,298,9.0,17.0,74,0.00,,,0.00,441.000000,,2013-03-06 03:41:00,
2013-03-05 17:52:00,58.0,50.0,-100.00,WNW,298,9.0,17.0,74,0.00,,,0.00,441.000000,,2013-03-06 03:52:00,
2013-03-05 18:21:00,54.0,49.0,-100.00,NW,305,6.0,16.0,84,0.00,,,0.00,104.000000,,2013-03-06 04:21:00,
2013-03-05 18:32:00,54.0,49.0,-100.00,NW,305,6.0,16.0,84,0.00,,,0.00,104.000000,,2013-03-06 04:32:00,
2013-03-05 18:41:00,54.0,49.0,-100.00,NW,305,6.0,16.0,84,0.00,,,0.00,104.000000,,2013-03-06 04:41:00,
2013-03-05 18:51:00,54.0,49.0,-100.00,NW,305,6.0,16.0,84,0.00,,,0.00,104.000000,,2013-03-06 04:51:00,
2013-03-05 19:22:00,52.0,47.0,-100.00,East,91,8.0,13.0,82,0.00,,,0.00,19.000000,,2013-03-06 05:22:00,
2013-03-05 19:32:00,52.0,47.0,-100.00,East,91,8.0,13.0,82,0.00,,,0.00,19.000000,,2013-03-06 05:32:00,
2013-03-05 19:42:00,52.0,47.0,-100.00,East,91,8.0,13.0,82,0.00,,,0.00,19.000000,,2013-03-06 05:42:00,
2013-03-05 19:52:00,52.0,47.0,-100.00,East,91,8.0,13.0,82,0.00,,,0.00,19.000000,,2013-03-06 05:52:00,
2013-03-05 20:22:00,50.0,46.0,-100.00,ESE,108,10.0,15.0,85,0.00,,,0.00,0.000000,,2013-03-06 06:22:00,
2013-03-05 20:31:00,50.0,46.0,-100.00,ESE,108,10.0,15.0,85,0.00,,,0.00,0.000000,,2013-03-06 06:31:00,
2013-03-05 20:41:00,50.0,46.0,-100.00,ESE,108,10.0,15.0,85,0.00,,,0.00,0.000000,,2013-03-06 06:41:00,
2013-03-05 20:52:00,50.0,46.0,-100.00,ESE,108,10.0,15.0,85,0.00,,,0.00,0.000000,,2013-03-06 06:52:00,
2013-03-05 21:22:00,47.0,42.0,-100.00,ESE,104,15.0,22.0,82,0.00,,,0.00,0.000000,,2013-03-06 07:22:00,
2013-03-05 21:31:00,47.0,42.0,-100.00,ESE,104,15.0,22.0,82,0.00,,,0.00,0.000000,,2013-03-06 07:31:00,
2013-03-05 21:42:00,47.0,42.0,-100.00,ESE,104,15.0,22.0,82,0.00,,,0.00,0.000000,,2013-03-06 07:42:00,
2013-03-05 21:52:00,47.0,42.0,-100.00,ESE,104,15.0,22.0,82,0.00,,,0.00,0.000000,,2013-03-06 07:52:00,
2013-03-05 22:21:00,45.0,41.0,-100.00,ESE,114,14.0,26.0,85,0.00,,,0.00,0.000000,,2013-03-06 08:21:00,
2013-03-05 22:31:00,45.0,41.0,-100.00,ESE,114,14.0,26.0,85,0.00,,,0.00,0.000000,,2013-03-06 08:31:00,
2013-03-05 22:42:00,45.0,41.0,-100.00,ESE,114,14.0,26.0,85,0.00,,,0.00,0.000000,,2013-03-06 08:42:00,
2013-03-05 22:52:00,45.0,41.0,-100.00,ESE,114,14.0,26.0,85,0.00,,,0.00,0.000000,,2013-03-06 08:52:00,
2013-03-05 23:21:00,47.0,40.0,-100.00,ESE,120,12.0,21.0,76,0.00,,,-99.99,0.000000,,2013-03-06 09:21:00,
2013-03-05 23:31:00,47.0,40.0,-100.00,ESE,120,12.0,21.0,76,0.00,,,-99.99,0.000000,,2013-03-06 09:31:00,
2013-03-05 23:41:00,47.0,40.0,-100.00,ESE,120,12.0,21.0,76,0.00,,,-99.99,0.000000,,2013-03-06 09:41:00,
2013-03-05 23:51:00,47.0,40.0,-100.00,ESE,120,12.0,21.0,76,0.00,,,-99.99,0.000000,,2013-03-06 09:51:00,